Temperature
11 10 10 10 9 9 8 8 8 7 7 7 7 7 6 6 6 6 6 6 6 6 6 6 7 7 7 7 8 8 7 7 7 8 9 9 10 10 10 11 11 11 11
10 9 9 9 8 8 8 7 7 7 6 6 6 6 5 5 5 4 4 4 4 4 5 5 5 5 6 6 6 6 6 6 6 7 7 8 8 9 9 9 10 10 10
8 8 8 7 7 6 6 6 6 6 5 5 5 5 5 4 4 3 3 3 3 4 4 4 4 4 5 5 5 5 5 5 6 6 6 7 7 8 8 8 8 9 9
8 7 6 6 5 5 5 5 5 4 4 4 4 3 3 3 3 2 2 2 2 3 3 3 3 3 4 3 3 3 3 4 4 5 6 6 7 7 7 7 8 8 8
6 5 5 5 4 4 4 4 4 3 3 3 3 2 2 1 1 1 2 1 2 2 2 2 3 3 3 2 2 2 2 2 3 4 5 5 6 7 7 7 7 7 7
5 4 4 4 4 3 3 3 2 2 2 2 2 1 1 1 1 1 1 1 1 1 1 1 2 2 1 1 2 1 1 1 1 2 3 4 5 5 6 6 6 7 7
4 3 3 3 3 2 1 1 1 1 0 0 0 0 -0 -0 -0 -1 -1 -1 -1 -1 -1 0 0 -0 0 1 1 1 1 -0 -0 0 1 2 3 4 5 5 5 6 6
3 3 2 2 1 1 0 0 -0 -1 -1 -1 -1 -1 -2 -1 -1 -2 -2 -2 -2 -2 -2 -1 -1 -2 -2 -2 -2 -1 -1 -1 -1 -0 0 1 2 2 3 4 4 5 6
2 2 1 0 -0 -0 -1 -1 -2 -2 -2 -3 -3 -3 -3 -3 -3 -3 -3 -3 -3 -3 -3 -3 -3 -3 -3 -3 -3 -3 -2 -1 -1 0 0 1 1 2 3 4 4 4 5
1 1 -0 -1 -1 -2 -2 -2 -3 -3 -3 -4 -4 -4 -4 -4 -4 -5 -5 -5 -5 -5 -5 -4 -4 -4 -4 -4 -4 -3 -3 -2 -1 -1 0 1 2 2 3 3 4 4 4
-0 -1 -1 -2 -2 -3 -3 -3 -4 -4 -4 -4 -5 -5 -5 -6 -6 -6 -6 -5 -5 -5 -5 -5 -5 -5 -5 -4 -4 -3 -3 -2 -2 -2 -1 0 1 2 2 3 3 3 3
-1 -1 -2 -2 -3 -4 -4 -4 -4 -5 -5 -6 -6 -7 -7 -7 -7 -6 -6 -6 -5 -5 -5 -6 -6 -5 -5 -4 -4 -3 -3 -3 -3 -2 -2 -1 0 1 1 1 2 2 2
-2 -2 -2 -3 -4 -4 -5 -5 -5 -6 -7 -7 -8 -8 -8 -7 -7 -7 -6 -6 -6 -6 -6 -6 -6 -6 -5 -5 -5 -4 -4 -4 -4 -3 -3 -2 -1 -0 -0 -0 -0 0 -0
-3 -3 -3 -4 -4 -5 -5 -6 -6 -7 -8 -8 -8 -8 -8 -8 -7 -7 -7 -7 -7 -7 -7 -7 -7 -7 -7 -7 -6 -5 -5 -4 -4 -4 -4 -3 -3 -2 -1 -1 -1 -1 -2
-3 -3 -4 -4 -5 -6 -6 -6 -7 -8 -8 -8 -8 -8 -8 -8 -8 -7 -7 -7 -7 -8 -8 -8 -8 -8 -8 -7 -7 -6 -5 -5 -5 -5 -5 -5 -4 -4 -3 -3 -3 -3 -3
-4 -4 -5 -5 -6 -7 -7 -7 -7 -8 -9 -9 -9 -8 -8 -8 -8 -8 -8 -8 -8 -8 -8 -9 -9 -9 -9 -8 -8 -7 -6 -6 -6 -6 -5 -5 -5 -5 -5 -5 -5 -4 -4
-5 -5 -6 -7 -7 -8 -8 -9 -9 -9 -9 -9 -9 -9 -9 -8 -8 -8 -8 -8 -9 -9 -9 -9 -10 -10 -9 -9 -8 -8 -7 -6 -6 -6 -6 -6 -6 -6 -6 -6 -6 -5 -5
-6 -6 -7 -8 -8 -8 -9 -9 -10 -10 -10 -10 -10 -10 -9 -9 -9 -9 -8 -9 -9 -10 -10 -10 -10 -10 -10 -9 -9 -8 -8 -7 -7 -6 -6 -7 -7 -7 -7 -6 -6 -5 -5
-7 -8 -8 -9 -9 -9 -9 -10 -10 -10 -10 -10 -10 -10 -10 -10 -9 -9 -9 -10 -10 -10 -10 -10 -10 -10 -10 -10 -9 -8 -8 -7 -7 -7 -7 -7 -7 -7 -7 -6 -6 -5 -5
-8 -8 -9 -9 -10 -10 -10 -10 -10 -10 -10 -10 -10 -10 -10 -10 -10 -10 -10 -10 -10 -10 -10 -11 -11 -11 -10 -10 -9 -8 -8 -8 -7 -7 -7 -7 -7 -7 -7 -6 -6 -6 -6
-9 -9 -10 -10 -10 -10 -10 -10 -10 -10 -10 -10 -10 -10 -10 -10 -11 -11 -11 -10 -10 -10 -10 -11 -11 -11 -10 -9 -9 -8 -8 -8 -7 -7 -7 -7 -7 -7 -6 -6 -6 -6 -5
-9 -10 -10 -10 -10 -10 -10 -10 -10 -11 -11 -11 -11 -11 -11 -11 -11 -11 -11 -11 -11 -11 -11 -11 -11 -11 -10 -9 -8 -8 -8 -8 -7 -7 -7 -7 -7 -6 -6 -6 -6 -5 -5
-10 -10 -11 -11 -11 -10 -10 -11 -11 -11 -11 -11 -11 -11 -11 -12 -12 -12 -11 -11 -11 -11 -11 -11 -11 -10 -9 -9 -8 -8 -8 -7 -7 -7 -7 -7 -6 -6 -5 -5 -5 -5 -5
-11 -11 -11 -11 -11 -11 -11 -11 -11 -11 -11 -11 -12 -12 -12 -12 -12 -12 -12 -11 -11 -11 -11 -11 -10 -9 -9 -8 -8 -8 -7 -7 -7 -7 -7 -6 -6 -5 -5 -5 -5 -5 -5
-11 -11 -11 -11 -11 -12 -12 -12 -12 -12 -12 -12 -12 -12 -12 -12 -12 -12 -12 -12 -11 -11 -11 -11 -10 -9 -9 -8 -8 -8 -7 -7 -7 -6 -6 -6 -5 -5 -5 -5 -5 -5 -5
-11 -11 -11 -11 -12 -12 -12 -12 -12 -12 -12 -12 -12 -12 -12 -12 -12 -12 -12 -12 -12 -11 -11 -10 -9 -9 -8 -8 -8 -7 -7 -7 -6 -6 -5 -5 -5 -5 -5 -5 -5 -5 -5
Wind_Speed
9 8 8 8 8 9 9 9 10 9 11 11 12 13 13 13 13 13 14 15 14 14 12 13 15 14 11 10 9 9 10 12 19 18 10 11 12 15 15 16 17 18 17
7 7 8 8 9 10 10 11 11 11 12 12 12 12 13 13 13 13 15 14 13 14 15 15 15 13 14 12 11 11 12 11 15 21 16 10 12 13 15 15 15 15 15
7 8 8 9 9 10 10 11 12 13 14 14 15 16 16 15 14 14 13 12 13 15 15 14 13 12 14 13 14 14 13 14 13 17 18 13 10 10 12 11 12 13 13
7 7 7 8 9 9 10 12 13 14 15 15 16 17 17 17 17 14 14 16 14 14 12 11 11 12 14 15 14 14 15 17 16 15 16 14 12 10 7 10 12 12 14
7 7 7 8 9 10 11 12 13 13 15 15 16 17 16 16 15 20 21 20 17 13 11 11 11 14 16 14 16 17 18 17 17 16 16 15 13 9 8 8 14 13 13
6 7 8 9 10 11 12 12 14 14 15 16 16 17 18 18 26 31 27 20 14 13 14 14 14 13 14 24 27 25 24 21 19 18 17 18 18 14 11 11 13 14 12
6 7 9 10 11 12 13 14 14 15 15 16 16 17 18 20 29 31 29 17 14 14 15 16 17 16 20 18 23 26 24 27 24 19 21 21 21 19 17 17 15 16 16
6 7 9 10 11 12 12 13 13 13 14 15 16 16 16 21 29 29 27 16 13 12 13 16 15 13 16 21 20 21 22 21 21 18 18 21 21 20 20 20 19 16 6
8 8 9 10 11 12 13 13 13 14 14 14 15 16 17 19 26 28 31 15 14 14 15 15 17 14 24 29 22 22 25 23 22 22 25 27 30 30 25 17 14 10 7
8 8 9 9 10 12 13 12 12 13 14 15 16 15 16 16 24 30 30 14 14 14 13 14 21 24 29 32 22 21 24 23 22 22 21 22 20 19 21 15 13 11 5
8 8 8 9 9 11 9 10 13 14 14 14 15 14 14 17 23 28 29 16 14 15 14 13 13 29 34 34 30 19 22 26 21 20 19 16 12 9 8 7 6 6 5
8 9 9 9 10 11 11 11 12 12 13 13 13 14 10 13 19 23 29 27 25 18 15 13 16 32 34 32 24 22 29 26 15 16 15 14 12 10 5 2 2 4 3
8 9 10 10 9 9 10 12 11 10 10 12 12 13 13 12 15 25 27 29 30 19 16 25 30 31 27 20 23 28 23 15 15 15 14 13 10 6 3 1 5 8 12
9 10 9 9 9 8 8 8 10 10 11 12 12 14 14 12 11 12 14 16 21 19 16 21 26 25 21 22 21 17 12 13 15 14 13 12 9 4 1 1 3 6 8
9 9 9 8 9 9 9 9 11 9 12 16 13 13 15 15 17 28 23 16 16 18 21 12 11 14 14 13 13 13 13 13 14 13 13 12 9 3 1 2 2 2 4
9 9 8 8 8 9 10 13 18 18 23 24 23 21 17 21 28 29 29 27 28 30 20 13 13 14 15 15 16 17 16 15 14 14 13 11 7 2 1 1 2 4 6
10 11 9 8 8 9 10 12 15 17 20 21 23 25 24 27 29 29 28 27 26 25 14 13 13 15 15 15 16 17 17 16 15 13 12 9 4 2 2 2 3 5 6
9 12 12 9 9 10 10 11 12 15 16 13 16 23 26 28 29 28 27 23 16 15 11 12 14 15 16 16 16 17 17 16 14 13 10 7 2 1 2 3 4 5 6
9 8 8 8 9 9 10 11 12 14 14 14 13 15 22 25 25 24 23 12 12 12 12 12 13 14 15 16 16 17 17 16 15 12 9 5 1 1 2 3 4 8 6
8 15 15 10 9 10 10 11 12 13 14 13 13 13 14 15 11 12 10 9 10 11 12 13 14 14 15 15 16 16 16 15 14 10 6 3 2 3 4 5 5 5 4
8 11 18 13 9 11 11 11 11 12 13 13 12 16 24 14 12 13 12 11 10 11 13 13 14 14 15 15 15 17 18 15 11 7 4 3 3 4 4 5 6 5 4
8 8 9 10 10 11 12 12 11 12 13 14 12 15 22 13 10 12 12 11 10 11 11 12 13 13 14 15 16 17 16 14 10 5 3 4 4 5 5 6 5 4 4
8 10 11 11 12 16 15 11 11 12 13 13 13 13 13 12 11 11 12 11 11 12 11 11 13 14 14 15 15 15 14 12 7 3 2 4 4 5 5 5 5 5 4
9 10 12 12 12 12 12 12 12 13 13 13 13 13 12 12 12 13 12 12 12 12 12 11 13 17 21 19 16 14 11 8 3 2 4 5 5 5 5 5 5 5 4
9 10 11 11 12 12 12 13 13 13 14 15 14 14 13 13 13 12 11 12 13 13 14 14 13 15 20 24 20 15 13 6 4 5 5 5 7 7 6 6 5 4 4
9 10 10 10 10 10 11 12 12 12 11 12 12 12 13 12 12 11 11 12 12 13 13 13 16 20 23 19 17 18 11 4 7 8 6 6 7 6 6 5 5 5 5
Wind_Direction
24 19 16 11 7 4 0 351 342 337 333 331 329 328 326 322 321 319 317 316 314 313 314 310 307 305 302 298 294 290 286 286 289 291 280 266 252 245 245 241 240 240 239
16 16 15 13 9 5 357 349 345 342 339 335 333 331 328 324 319 316 313 315 318 317 313 308 307 311 308 306 303 299 296 289 289 293 291 280 263 253 248 244 242 243 242
14 13 15 11 4 356 349 346 346 343 340 339 338 334 330 327 323 315 309 315 315 311 309 307 309 313 311 309 308 305 301 297 290 289 291 288 278 265 253 249 248 247 245
12 9 10 1 352 346 345 344 343 341 338 337 334 331 327 326 322 320 326 319 313 309 306 303 305 309 311 312 311 306 307 305 300 294 290 289 284 275 250 255 257 246 246
2 3 357 350 348 346 344 340 338 336 334 330 330 328 327 326 321 326 325 320 314 310 308 303 302 302 300 313 319 316 315 311 307 301 296 293 287 279 263 253 260 257 242
359 356 351 352 349 346 341 337 335 334 331 330 328 326 325 324 321 322 324 319 317 319 322 321 315 307 321 326 320 317 314 309 308 305 301 297 295 289 287 281 272 265 257
359 355 355 351 345 340 337 335 333 330 327 326 323 323 320 319 320 322 324 332 327 322 322 322 319 320 331 322 317 318 314 308 302 300 297 296 298 299 299 296 290 277 261
356 352 350 345 338 333 331 328 325 325 323 320 319 318 317 318 321 325 331 330 318 313 316 315 310 315 320 321 318 316 311 306 298 292 286 286 288 289 288 287 286 285 266
351 344 339 335 331 330 327 323 320 321 318 315 316 316 316 317 322 328 329 323 320 317 316 313 311 309 314 319 318 312 308 304 299 287 281 280 278 278 278 279 274 263 244
331 323 321 320 321 320 316 313 315 316 313 314 314 313 311 313 319 326 325 318 316 314 311 308 310 314 316 316 312 307 305 306 310 309 300 289 282 279 280 273 269 260 229
309 309 311 312 313 311 310 313 313 314 314 313 312 311 308 311 320 323 323 323 317 316 315 314 314 316 314 311 309 303 304 313 313 308 303 300 295 284 276 272 279 265 219
304 306 308 308 310 317 312 311 310 312 314 314 314 313 312 314 318 320 323 325 325 322 319 317 315 314 312 312 312 311 316 318 310 307 306 307 308 300 288 307 17 35 57
308 307 307 306 301 302 306 310 313 313 314 314 315 316 318 317 317 321 325 327 327 326 319 319 318 317 320 320 315 317 320 315 309 308 309 311 306 296 302 33 65 72 68
306 304 303 304 306 304 305 306 309 311 311 312 314 316 316 315 315 319 324 324 326 325 320 320 323 323 323 319 317 314 310 306 312 311 311 309 303 304 330 50 102 96 85
300 300 303 304 307 312 310 306 307 299 306 314 315 316 316 317 319 325 328 325 330 328 329 323 325 325 322 320 318 315 314 315 318 317 313 307 300 303 1 49 79 61 96
307 310 309 308 308 308 310 311 308 310 313 316 317 317 316 316 321 325 326 329 335 336 333 325 325 323 320 322 322 320 319 320 321 318 313 303 291 249 172 93 84 101 115
301 306 306 303 303 306 308 309 311 314 315 317 318 319 319 320 323 324 326 333 336 338 332 323 322 322 320 320 320 319 318 319 319 316 311 305 282 205 165 144 121 113 112
296 301 304 299 300 301 302 304 308 312 316 317 318 318 319 322 323 324 328 334 330 332 324 321 320 320 319 319 320 318 315 317 319 318 315 307 281 179 152 140 127 117 114
297 294 293 292 295 299 301 304 307 308 310 311 312 316 320 320 321 323 328 323 319 320 322 320 318 318 318 319 319 315 313 317 319 320 316 312 320 110 112 111 112 122 109
293 301 311 307 304 303 303 304 306 307 308 307 309 314 317 316 320 321 318 309 312 315 317 317 318 317 319 319 317 315 315 318 320 319 316 327 38 73 92 95 96 98 90
293 301 310 310 301 300 301 301 301 303 304 305 306 310 317 323 322 319 318 317 315 315 314 316 317 318 319 318 317 315 315 318 320 317 324 6 46 66 76 82 84 89 96
293 297 300 299 299 298 299 300 301 302 302 303 305 310 317 321 314 313 316 317 312 310 309 312 314 316 316 317 316 315 315 319 321 321 358 37 56 70 76 78 78 76 73
296 299 300 299 300 302 305 300 299 300 302 305 308 312 316 315 314 315 315 315 314 313 313 313 314 316 316 316 315 313 314 317 318 327 48 63 67 70 76 80 78 71 57
292 297 301 302 303 303 302 302 302 303 306 309 311 311 311 313 314 313 313 314 313 312 313 314 314 313 315 321 320 317 317 319 339 50 83 91 83 79 77 71 64 58 44
297 300 302 304 305 305 305 305 305 306 307 308 308 309 310 311 310 309 310 311 310 311 312 316 316 318 320 321 321 324 329 342 80 86 83 87 87 81 78 71 61 51 43
301 303 305 304 301 301 301 301 300 298 298 300 301 301 304 305 306 306 308 310 313 315 317 318 317 320 322 322 322 330 344 65 105 105 94 88 89 83 80 70 63 55 49
Height
1472 1469 1467 1464 1461 1458 1454 1450 1445 1441 1436 1431 1426 1421 1417 1412 1408 1403 1398 1393 1388 1383 1379 1374 1369 1365 1360 1357 1353 1349 1344 1340 1331 1321 1320 1318 1317 1314 1312 1311 1309 1308 1307
1469 1467 1464 1460 1457 1453 1448 1444 1440 1435 1430 1426 1420 1415 1410 1405 1401 1397 1392 1387 1382 1377 1372 1367 1362 1358 1353 1349 1344 1339 1335 1331 1325 1315 1307 1306 1304 1303 1300 1298 1295 1295 1293
1466 1463 1460 1456 1452 1448 1444 1439 1434 1430 1425 1420 1415 1409 1404 1399 1394 1391 1387 1382 1376 1371 1366 1361 1356 1352 1346 1341 1336 1331 1326 1321 1316 1309 1299 1295 1293 1292 1289 1285 1283 1281 1279
1464 1460 1456 1452 1448 1444 1440 1435 1430 1425 1420 1414 1409 1404 1399 1393 1389 1385 1380 1374 1369 1364 1360 1355 1350 1346 1340 1335 1328 1323 1318 1312 1306 1300 1293 1287 1283 1280 1278 1274 1271 1268 1265
1460 1457 1452 1448 1444 1440 1436 1431 1426 1421 1416 1410 1404 1398 1394 1389 1384 1380 1374 1367 1362 1357 1352 1348 1343 1338 1333 1329 1324 1316 1310 1304 1299 1293 1286 1280 1275 1271 1268 1265 1261 1256 1253
1457 1453 1449 1445 1441 1436 1432 1427 1423 1418 1413 1407 1401 1395 1389 1384 1379 1375 1370 1362 1356 1351 1345 1339 1335 1330 1325 1320 1314 1309 1304 1299 1293 1287 1279 1273 1268 1265 1261 1257 1252 1247 1242
1453 1449 1445 1441 1437 1433 1429 1424 1419 1414 1409 1403 1398 1391 1385 1379 1374 1369 1364 1357 1351 1345 1339 1333 1328 1323 1317 1311 1303 1297 1292 1289 1286 1281 1272 1266 1261 1257 1253 1248 1243 1239 1232
1450 1446 1441 1437 1432 1429 1425 1420 1416 1410 1405 1399 1393 1387 1380 1374 1369 1364 1358 1351 1344 1339 1333 1328 1322 1316 1310 1305 1297 1288 1281 1276 1274 1269 1264 1257 1252 1247 1244 1239 1233 1227 1223
1446 1442 1438 1433 1428 1424 1420 1416 1411 1406 1400 1394 1388 1382 1375 1369 1365 1359 1352 1344 1337 1331 1326 1320 1315 1309 1303 1299 1292 1283 1273 1266 1262 1257 1251 1245 1240 1235 1232 1227 1221 1217 1211
1442 1438 1434 1430 1425 1421 1417 1412 1407 1401 1395 1389 1382 1376 1371 1365 1360 1354 1348 1340 1332 1326 1319 1314 1308 1302 1296 1291 1285 1278 1269 1260 1252 1243 1237 1232 1227 1222 1218 1215 1210 1206 1201
1438 1434 1430 1426 1422 1417 1412 1408 1402 1396 1389 1383 1376 1370 1365 1360 1354 1348 1343 1337 1329 1321 1313 1306 1300 1294 1287 1281 1276 1271 1264 1256 1246 1237 1228 1221 1216 1211 1207 1203 1200 1196 1193
1433 1429 1425 1422 1417 1412 1407 1402 1397 1390 1383 1376 1370 1364 1359 1354 1349 1343 1338 1332 1325 1316 1308 1301 1294 1287 1279 1273 1267 1261 1256 1248 1239 1230 1221 1214 1209 1203 1199 1194 1190 1187 1185
1429 1424 1420 1416 1412 1407 1402 1396 1390 1385 1379 1372 1367 1361 1354 1349 1343 1339 1333 1326 1319 1311 1303 1296 1288 1280 1272 1265 1259 1254 1247 1240 1232 1224 1216 1209 1203 1198 1193 1189 1185 1182 1180
1424 1420 1415 1411 1406 1402 1397 1392 1386 1380 1375 1369 1364 1358 1351 1345 1339 1333 1327 1319 1312 1304 1296 1288 1281 1273 1266 1260 1252 1246 1240 1234 1227 1219 1211 1204 1198 1193 1189 1185 1182 1179 1179
1419 1415 1410 1406 1401 1396 1391 1387 1381 1376 1373 1367 1361 1354 1348 1341 1335 1331 1324 1316 1308 1300 1292 1282 1275 1267 1259 1252 1246 1239 1234 1228 1220 1213 1206 1199 1193 1189 1185 1182 1180 1179 1179
1413 1409 1405 1401 1396 1391 1385 1379 1374 1371 1366 1361 1356 1351 1344 1338 1331 1325 1319 1312 1304 1297 1288 1280 1272 1265 1257 1250 1242 1235 1229 1222 1215 1208 1201 1195 1190 1186 1183 1181 1180 1181 1181
1409 1405 1400 1395 1391 1386 1380 1374 1366 1360 1357 1353 1349 1344 1339 1333 1326 1320 1313 1307 1301 1294 1286 1278 1270 1263 1255 1248 1241 1233 1225 1218 1211 1204 1197 1191 1187 1184 1182 1181 1182 1183 1184
1404 1400 1395 1390 1385 1380 1375 1369 1363 1356 1349 1344 1341 1338 1333 1327 1321 1315 1309 1302 1295 1289 1283 1276 1268 1260 1253 1246 1239 1230 1222 1214 1207 1200 1193 1188 1185 1183 1182 1182 1183 1185 1187
1398 1393 1388 1383 1379 1374 1369 1364 1359 1353 1347 1341 1335 1330 1327 1321 1316 1311 1306 1300 1292 1285 1279 1272 1265 1257 1251 1243 1235 1226 1218 1211 1204 1197 1191 1187 1184 1183 1183 1184 1186 1188 1190
1391 1387 1383 1378 1373 1368 1364 1359 1354 1349 1343 1337 1332 1326 1320 1315 1309 1304 1300 1294 1288 1282 1275 1268 1261 1254 1247 1239 1230 1222 1215 1208 1201 1195 1190 1187 1185 1185 1186 1187 1190 1192 1194
1384 1380 1376 1372 1367 1363 1358 1354 1349 1344 1339 1333 1328 1323 1318 1312 1306 1300 1295 1290 1284 1278 1271 1264 1257 1250 1243 1235 1227 1219 1212 1206 1201 1196 1192 1189 1188 1189 1190 1192 1194 1196 1197
1378 1373 1369 1365 1361 1357 1352 1348 1343 1339 1333 1328 1322 1317 1313 1308 1302 1296 1291 1285 1280 1274 1268 1261 1254 1248 1240 1232 1224 1216 1210 1205 1200 1196 1194 1193 1193 1194 1196 1197 1198 1200 1201
1371 1367 1363 1359 1355 1350 1346 1342 1337 1332 1327 1322 1317 1312 1308 1303 1298 1292 1287 1281 1275 1270 1264 1258 1251 1243 1237 1229 1222 1215 1210 1205 1201 1198 1197 1198 1199 1199 1200 1202 1203 1204 1204
1365 1361 1356 1352 1348 1344 1340 1335 1331 1326 1322 1317 1312 1307 1303 1298 1293 1288 1282 1277 1271 1265 1260 1254 1247 1240 1233 1226 1219 1213 1209 1205 1202 1201 1201 1202 1203 1204 1206 1206 1207 1207 1207
1358 1353 1349 1345 1341 1337 1333 1329 1324 1320 1316 1311 1307 1302 1298 1293 1288 1283 1278 1273 1267 1261 1256 1250 1244 1237 1230 1223 1217 1212 1209 1206 1204 1204 1205 1207 1208 1209 1210 1211 1211 1211 1210
1350 1346 1342 1337 1333 1329 1325 1321 1317 1313 1309 1305 1301 1297 1293 1288 1284 1279 1274 1269 1263 1258 1252 1246 1240 1234 1228 1221 1217 1213 1211 1209 1209 1209 1210 1212 1213 1214 1215 1216 1216 1215 1214